This demonstration page uses our WeatherBlox Daily Observations layout. Learn more.

Left ArrowRight Arrow

38.88101, -77.10428

Hourly Observations for June 19, 2021

Temp ( °F °C ) Dew Point ( °F °C ) Humidity (%) Winds ( mph kmh ) Pressure ( in mb ) Visibility ( mi km ) Precip ( " mm )
12:52 am 00:52 Cloudy 78 25.6 61 16.1 56 56 S 10 17 29.88 1012 10 16 N/A
1:52 am 01:52 Cloudy 76 24.4 62 16.7 62 62 S 10 17 29.85 1011 10 16 N/A
2:52 am 02:52 Cloudy 75 23.9 61 16.1 62 62 SSW 8 13 29.83 1010 10 16 N/A
3:52 am 03:52 Cloudy 75 23.9 62 16.7 64 64 S 8 13 29.84 1010 10 16 N/A
4:52 am 04:52 Mostly Cloudy 74 23.3 62 16.7 67 67 S 8 13 29.82 1010 10 16 N/A
5:52 am 05:52 Mostly Cloudy 73 22.8 63 17.2 71 71 S 8 13 29.82 1010 10 16 N/A
6:52 am 06:52 Mostly Cloudy 75 23.9 63 17.2 66 66 SSW 6 9 29.83 1010 10 16 N/A
7:52 am 07:52 Mostly Cloudy 76 24.4 63 17.2 64 64 SSW 8 13 29.85 1011 10 16 N/A
8:52 am 08:52 Mostly Cloudy 76 24.4 63 17.2 64 64 SSW 9 15 29.87 1011 10 16 N/A
9:52 am 09:52 Mostly Cloudy 76 24.4 64 17.8 67 67 SW 6 9 29.87 1012 10 16 N/A
10:52 am 10:52 Mostly Cloudy 77 25 65 18.3 66 66 SSW 5 7 29.87 1012 10 16 N/A
11:52 am 11:52 Mostly Cloudy 79 26.1 66 18.9 65 65 SSW 10 17 29.88 1012 10 16 N/A
12:52 pm 12:52 Mostly Cloudy 81 27.2 67 19.4 62 62 SSW 8 13 29.87 1012 10 16 0.00 0.00
1:52 pm 13:52 Mostly Cloudy 82 27.8 70 21.1 67 67 S 8 13 29.86 1011 10 16 N/A
2:52 pm 14:52 Mostly Cloudy 87 30.6 65 18.3 48 48 SSW 8 13 29.85 1011 10 16 N/A
3:11 pm 15:11 Mostly Cloudy 87 30.6 65 18.3 48 48 W 14 22 29.86 1011 10 16 N/A
3:52 pm 15:52 Mostly Cloudy 87 30.6 66 18.9 50 50 WNW 14 22 29.84 1011 10 16 N/A
4:52 pm 16:52 Cloudy 83 28.3 63 17.2 51 51 S 5 7 29.79 1009 10 16 N/A
5:52 pm 17:52 Cloudy 85 29.4 64 17.8 50 50 WSW 3 6 29.80 1009 10 16 0.00 0.00
6:52 pm 18:52 Mostly Cloudy 85 29.4 65 18.3 51 51 W 6 9 29.82 1010 10 16 N/A
7:52 pm 19:52 Mostly Cloudy 83 28.3 65 18.3 55 55 SSW 6 9 29.81 1010 10 16 N/A
8:52 pm 20:52 Cloudy with Light Rain 79 26.1 70 21.1 74 74 S 5 7 29.81 1010 10 16 0.00 0.00
9:52 pm 21:52 Mostly Cloudy 81 27.2 67 19.4 62 62 N N/A 29.83 1010 10 16 0.00 0.00
10:52 pm 22:52 Cloudy 79 26.1 69 20.6 72 72 N N/A 29.84 1010 10 16 N/A
11:52 pm 23:52 Cloudy with Rain 77 25 70 21.1 79 79 N 8 13 29.83 1010 8 13 0.00 0.00

Powered by AerisWeather